User: anonymous   Login
Location: Unspecified
(0.0000°N, 0.0000°E)
Time: 11:52:00
(UTC+00:00)
Language:

SPACECUBE (2U) - Orbit

View from above orbital plane
View from above orbital plane
View from above satellite
View from above satellite

Ground track
Ground track

The orbit data is extracted from the following two-line orbital elements,

1 42717U 98067LY  18168.99279336  .00023277  00000-0  18746-3 0  9993
2 42717  51.6339 351.5905 0002763 237.8115 122.2615 15.70804420 61077
Epoch (UTC): 17 June 2018 23:49:37
Eccentricity: 0.0002763
inclination: 51.6339°
perigee height: 355 km
apogee height: 358 km
right ascension of ascending node: 351.5905°
argument of perigee: 237.8115°
revolutions per day: 15.70804420
mean anomaly at epoch: 122.2615°
orbit number at epoch: 6107

The dashed part of the orbit path shows where the satellite is in the earth's shadow,  

DLR